Wind_Speed
3 4 7 7 8 6 10 10 23 20 21 17 19 18 14 9 17 6 25 21 21 18 18 16 14 13 12 11 11 11 12 14 15 17 22 17 18 18 20 21 21 21 19 21 20 21 21 22 20
3 3 5 9 8 14 14 22 29 27 21 24 18 13 14 12 6 23 26 23 20 17 15 13 12 12 12 12 12 11 12 14 15 18 19 15 16 17 18 20 20 20 20 20 20 21 22 22 18
2 4 5 14 10 14 26 27 27 21 21 18 21 22 13 7 16 24 22 23 20 17 14 13 13 12 11 10 11 12 12 14 14 15 15 14 13 15 17 19 19 18 18 19 19 21 22 21 19
5 7 15 16 15 24 26 28 22 23 17 13 14 16 16 19 24 22 23 21 17 15 14 13 12 11 10 9 12 13 15 15 15 15 15 15 14 15 16 18 18 19 18 19 19 20 20 21 19
4 9 20 25 27 29 20 15 14 14 13 7 10 21 26 24 22 22 21 18 14 14 14 12 12 11 9 10 14 15 15 15 15 14 15 16 15 15 16 18 18 17 17 19 19 19 20 20 20
11 15 25 22 24 21 24 15 15 12 6 7 8 27 25 24 23 23 20 18 15 12 13 11 12 13 13 16 17 16 14 13 14 15 14 15 15 15 16 17 17 16 17 18 20 20 19 20 20
16 8 9 19 26 22 23 15 11 10 5 9 12 27 29 23 24 22 18 17 15 14 12 12 13 14 16 18 16 16 14 13 13 14 15 15 16 16 18 17 17 16 16 17 19 19 18 21 20
8 8 15 16 22 21 20 16 12 3 14 18 12 21 28 29 24 18 16 15 15 14 13 11 13 14 14 16 15 15 14 14 14 15 16 17 18 18 18 18 17 16 16 18 18 18 18 17 20
11 8 10 10 15 16 26 20 21 13 15 15 9 12 25 22 19 17 15 14 13 14 14 12 12 14 14 15 16 15 14 16 16 15 16 21 20 20 19 18 16 15 15 16 17 17 19 19 24
3 4 15 12 12 13 12 17 16 11 16 20 25 25 24 19 14 15 8 9 12 13 14 13 11 12 14 15 16 16 14 12 14 17 20 24 23 21 20 18 15 14 13 13 15 16 18 20 23
3 3 6 4 9 16 20 19 18 24 25 16 18 29 25 20 11 9 14 9 11 9 10 12 10 11 15 15 13 15 14 13 15 17 20 22 23 21 19 16 16 15 12 11 13 14 17 17 21
4 9 8 4 3 20 22 18 22 20 12 15 18 23 20 22 13 8 6 7 11 13 10 10 10 10 11 12 12 13 14 15 17 19 21 19 19 20 19 17 17 15 12 13 13 16 16 16 20
7 12 7 7 3 19 23 19 17 20 12 21 28 22 19 17 11 10 6 5 11 9 7 9 10 10 8 9 10 11 11 17 17 14 16 19 17 18 19 14 15 13 13 17 13 14 17 17 20
11 19 11 6 8 12 21 21 18 18 21 24 34 24 20 16 13 9 4 1 1 7 8 9 5 12 14 11 11 9 8 14 16 13 13 15 17 15 14 13 15 15 17 15 16 15 19 19 17
6 18 8 12 11 12 17 21 18 21 29 23 34 30 21 20 15 8 4 2 2 10 11 12 13 18 10 7 11 10 10 13 15 13 11 14 15 14 15 17 16 17 20 17 15 17 18 19 18
11 13 9 13 13 13 15 19 22 30 30 29 29 32 27 20 21 11 11 7 1 10 13 12 11 16 14 9 17 13 14 12 13 14 12 12 14 13 16 18 18 20 18 14 15 17 21 19 21
14 14 17 3 20 17 15 18 26 29 31 36 33 32 26 18 13 18 14 10 7 10 13 12 13 14 11 10 16 11 12 9 11 13 13 11 14 12 16 17 19 17 15 16 20 20 22 21 20
8 2 15 18 21 22 11 16 27 29 33 33 34 35 28 26 27 22 14 14 9 11 10 10 13 15 13 9 12 15 13 12 11 11 12 11 12 10 11 14 16 16 14 17 18 17 18 18 19
11 5 4 13 16 19 14 14 24 29 27 36 34 34 29 25 18 22 19 15 11 12 12 11 11 15 11 9 9 12 13 12 11 9 11 11 11 11 11 12 15 22 15 18 16 14 14 19 19
13 11 9 6 11 13 14 16 27 32 26 29 34 33 27 27 28 23 21 16 11 15 11 12 10 11 13 11 11 13 13 11 12 11 10 10 13 14 13 15 18 17 17 16 18 16 15 20 22
13 17 17 18 17 9 7 11 19 26 24 30 37 36 37 32 31 28 21 13 12 17 12 12 13 11 11 11 11 13 11 11 8 11 11 9 10 12 13 14 13 12 14 18 21 18 20 19 21
19 11 19 21 20 10 9 5 20 30 27 34 38 37 38 36 31 28 22 15 11 15 15 14 13 12 11 12 14 9 9 8 9 11 11 10 11 12 13 12 10 10 13 18 20 21 21 19 17
19 16 13 22 17 16 19 6 7 29 30 40 34 35 38 41 36 30 25 18 8 10 16 15 15 13 10 12 15 12 11 9 9 9 10 10 10 12 13 11 11 12 11 15 16 21 19 19 17
16 11 15 17 14 8 14 16 11 30 39 33 38 39 33 43 38 33 26 16 7 13 12 14 15 13 12 13 15 15 13 11 9 9 8 9 9 9 13 13 10 13 12 14 15 21 21 21 19
16 23 6 2 2 7 9 18 13 26 30 29 26 36 34 43 40 37 33 23 12 15 14 6 12 14 13 12 14 15 12 11 10 9 9 9 8 10 12 14 14 11 10 10 15 20 22 23 23
16 14 8 4 4 8 6 11 15 21 24 18 26 35 40 34 39 39 33 28 18 17 15 7 3 15 15 12 13 15 12 10 12 10 10 9 9 8 9 10 11 13 13 11 14 19 21 21 26
19 9 9 12 10 5 10 6 8 28 33 22 22 33 36 39 35 40 41 35 28 25 18 12 7 13 17 13 12 14 14 12 10 13 11 8 8 10 8 7 8 10 11 13 13 16 23 20 18
19 11 6 7 4 4 7 15 12 22 24 24 26 14 16 8 39 36 42 40 31 29 29 23 17 16 21 20 19 18 17 17 16 14 12 10 12 11 10 8 7 7 9 11 11 12 16 20 18
12 13 6 3 3 5 4 2 12 27 29 26 23 18 14 13 18 42 37 35 31 34 26 27 26 22 23 22 19 19 20 20 17 15 14 13 15 10 9 9 8 9 8 8 10 10 11 14 16
5 7 12 2 2 3 8 4 8 18 26 21 21 19 19 17 20 20 30 19 23 23 30 34 31 29 19 17 18 18 18 18 18 17 16 14 14 13 12 11 12 12 11 10 10 11 13 13 12
Wind_Direction
97 122 146 129 153 143 95 138 153 149 146 142 137 136 111 128 131 163 150 143 139 140 138 139 136 133 128 123 120 122 120 117 115 117 133 118 104 100 100 103 101 96 92 97 97 94 98 97 97
149 158 132 149 140 124 100 138 147 156 150 157 159 182 158 147 178 152 145 142 138 138 136 131 126 120 116 113 113 117 119 121 126 129 141 123 112 107 106 108 101 94 89 93 94 93 96 96 102
238 225 177 169 147 115 116 139 145 143 156 165 166 181 167 138 150 142 143 135 138 137 131 124 120 116 114 115 114 117 121 123 128 132 138 134 121 112 108 105 97 96 91 91 94 92 96 97 93
316 183 121 157 136 133 123 138 132 140 146 169 171 159 136 135 147 142 137 134 138 135 129 125 119 112 113 121 126 127 129 126 127 134 137 136 134 123 112 107 100 98 91 87 91 90 94 98 96
48 105 139 156 128 141 134 148 153 148 144 159 198 136 129 144 143 133 130 129 134 133 125 124 118 110 107 126 134 133 131 129 128 132 139 142 140 132 119 111 104 99 94 90 93 90 90 95 96
58 118 143 142 129 146 141 154 170 181 162 164 178 144 127 143 142 137 131 134 133 130 123 120 113 105 101 120 131 131 129 128 126 129 133 137 137 133 123 116 110 105 99 100 98 93 93 91 90
60 83 138 146 135 147 133 145 193 166 151 140 151 137 130 132 126 137 139 137 133 131 125 123 116 109 111 120 128 128 124 122 127 130 131 135 139 136 128 124 119 110 105 104 100 101 98 98 98
77 65 39 144 146 110 138 160 135 120 113 141 157 148 134 121 121 111 127 134 135 135 127 126 117 116 117 122 121 120 116 113 115 122 131 135 140 139 133 125 118 112 107 100 102 102 97 93 96
88 41 340 159 160 139 141 181 144 133 124 147 171 159 137 129 122 124 134 141 146 138 128 130 126 124 123 121 118 115 110 109 112 117 133 137 141 140 133 128 122 115 106 103 103 102 99 97 110
184 41 82 171 191 194 197 179 175 180 147 158 154 146 143 131 139 113 133 141 144 132 135 138 136 130 128 122 126 119 111 109 106 116 126 130 136 139 135 132 126 112 101 103 109 109 108 103 111
187 244 5 327 221 193 180 173 182 173 176 159 167 153 154 147 145 113 115 121 133 134 144 142 137 139 133 124 127 123 117 112 106 113 125 132 134 137 133 126 115 106 113 96 105 119 119 113 114
207 243 310 279 155 173 176 175 157 176 147 161 169 159 152 157 150 137 99 133 144 145 150 143 146 149 143 132 134 129 125 122 115 124 121 126 133 131 127 126 120 113 114 111 116 135 121 105 103
264 252 258 280 150 184 189 181 177 160 156 149 169 160 156 159 170 166 157 94 138 139 136 126 144 153 157 123 127 126 135 129 124 133 122 127 129 131 132 139 128 131 121 114 114 111 102 101 105
297 251 230 248 168 198 191 197 182 175 168 152 169 170 161 167 182 176 178 18 205 148 141 130 158 161 152 131 143 131 137 134 125 131 131 126 140 149 145 138 140 127 127 125 113 118 109 108 98
237 188 205 221 174 179 189 186 184 183 163 159 169 167 168 188 182 220 212 258 296 154 147 151 137 134 113 153 142 144 128 136 123 122 131 141 146 147 150 146 140 130 124 131 124 114 112 110 106
178 218 186 194 190 193 176 185 177 176 167 165 170 159 173 198 194 203 236 236 176 162 150 145 134 142 141 123 150 143 127 120 125 137 124 140 139 139 134 142 147 138 136 138 120 132 117 118 112
224 207 202 159 202 196 191 192 191 184 183 164 167 163 181 194 196 221 217 249 261 195 149 147 141 147 154 135 150 151 132 120 133 146 147 144 131 129 144 146 135 133 133 140 140 128 124 121 124
190 146 217 240 207 204 216 189 199 190 190 178 163 167 188 202 197 205 233 252 249 191 151 160 157 151 163 168 132 128 139 138 133 134 149 149 145 150 150 135 145 143 142 149 133 120 122 123 125
211 349 268 208 206 212 210 196 197 196 193 196 174 169 192 206 199 217 240 250 252 207 161 174 187 151 156 162 143 141 140 152 138 141 146 147 153 156 145 144 143 140 150 158 141 133 126 117 122
246 262 250 197 202 205 214 190 196 201 197 200 173 174 198 202 192 213 233 240 243 214 172 163 195 159 165 163 170 143 138 144 143 142 136 145 156 161 149 145 150 148 161 154 150 157 138 131 129
233 259 254 241 202 182 198 193 203 200 198 180 179 186 194 205 211 213 227 233 227 209 182 169 190 193 171 163 173 158 155 150 145 139 139 150 160 168 159 157 166 163 161 171 174 167 152 139 133
262 252 267 231 197 237 244 209 227 204 203 199 183 185 193 201 217 225 231 227 214 204 192 182 194 205 187 182 186 169 156 165 166 147 140 148 151 151 152 161 175 171 171 173 176 171 170 159 150
259 284 251 216 209 193 217 195 229 205 204 191 188 187 192 194 213 223 232 226 224 200 198 189 199 205 196 189 197 188 175 170 169 149 143 141 145 156 156 157 163 161 168 188 170 179 176 171 169
256 198 160 175 187 206 223 196 214 200 206 200 197 191 196 198 196 216 231 219 191 170 175 196 205 209 198 199 191 188 180 167 167 157 162 147 146 155 152 161 155 152 151 175 179 184 187 179 180
252 194 145 73 58 239 175 193 248 210 197 197 208 204 197 200 200 197 217 215 194 177 155 149 212 209 202 189 195 195 186 189 164 163 173 159 160 162 155 159 166 166 181 185 178 187 192 182 186
238 221 198 147 184 236 269 209 234 201 194 185 221 216 210 210 205 197 204 213 204 193 196 176 183 207 208 197 193 195 195 194 185 184 193 183 174 178 164 169 166 172 183 189 189 184 197 199 194
238 265 250 249 206 168 155 124 183 178 183 189 158 183 204 232 234 201 203 202 205 211 205 196 200 191 197 212 210 201 202 201 207 201 197 180 190 181 180 183 177 179 178 180 190 195 199 204 200
226 230 229 208 148 217 183 173 180 188 190 195 186 168 187 315 208 203 201 201 212 214 201 203 193 187 194 201 206 199 207 214 210 213 204 190 180 194 201 198 208 203 194 180 180 193 193 203 208
191 211 212 297 266 171 141 179 194 201 200 188 200 206 194 209 203 200 199 209 221 215 197 197 209 201 192 199 207 208 206 207 216 216 216 204 210 202 194 219 201 207 209 195 191 185 194 198 208
273 211 209 222 221 43 120 106 153 196 205 212 219 221 211 198 178 180 205 210 216 227 214 216 210 205 196 200 211 212 210 214 214 220 227 211 208 215 206 225 216 209 209 209 200 185 194 203 212
Height
3164 3165 3165 3165 3171 3169 3169 3169 3173 3175 3176 3178 3178 3179 3181 3182 3181 3186 3186 3188 3190 3193 3195 3196 3197 3198 3198 3199 3200 3201 3201 3202 3202 3203 3204 3205 3206 3206 3206 3206 3207 3206 3206 3206 3205 3205 3205 3205 3205
3164 3165 3160 3166 3168 3169 3170 3169 3171 3173 3174 3179 3180 3180 3181 3181 3181 3182 3185 3189 3193 3195 3196 3198 3199 3199 3200 3201 3201 3202 3203 3203 3204 3205 3206 3207 3208 3209 3209 3210 3210 3210 3209 3209 3209 3208 3208 3209 3208
3165 3165 3158 3165 3167 3168 3170 3171 3171 3176 3179 3179 3180 3182 3182 3183 3184 3186 3189 3191 3195 3197 3198 3199 3200 3200 3201 3202 3203 3203 3204 3205 3205 3206 3207 3209 3210 3211 3211 3212 3212 3213 3214 3213 3212 3212 3212 3212 3212
3164 3151 3166 3164 3167 3170 3172 3173 3171 3175 3180 3183 3182 3183 3185 3185 3187 3188 3191 3193 3196 3198 3199 3200 3201 3202 3202 3203 3204 3205 3206 3207 3208 3208 3209 3210 3211 3213 3214 3215 3215 3217 3216 3215 3215 3215 3216 3216 3216
3164 3159 3163 3166 3169 3172 3173 3175 3175 3176 3178 3181 3183 3183 3184 3190 3191 3193 3194 3196 3199 3200 3201 3202 3203 3204 3204 3203 3205 3207 3208 3208 3209 3210 3211 3212 3214 3216 3217 3218 3218 3218 3218 3218 3218 3218 3219 3219 3220
3168 3168 3165 3167 3171 3173 3173 3176 3176 3178 3180 3182 3183 3184 3187 3193 3194 3194 3197 3199 3202 3204 3204 3204 3205 3205 3205 3205 3207 3208 3209 3210 3210 3211 3213 3214 3215 3217 3219 3220 3221 3221 3221 3221 3220 3219 3220 3220 3221
3168 3169 3171 3172 3171 3172 3173 3177 3176 3179 3181 3182 3184 3184 3189 3196 3198 3198 3200 3202 3203 3205 3206 3207 3207 3207 3207 3207 3209 3210 3210 3211 3211 3213 3213 3215 3217 3218 3220 3221 3222 3223 3223 3223 3222 3222 3222 3223 3223
3166 3169 3163 3172 3175 3172 3176 3177 3178 3181 3182 3185 3187 3187 3189 3195 3199 3201 3202 3203 3204 3206 3207 3208 3209 3209 3209 3210 3211 3212 3213 3212 3212 3213 3214 3216 3218 3220 3222 3223 3224 3225 3225 3226 3226 3225 3224 3224 3225
3173 3174 3169 3173 3177 3174 3176 3177 3179 3181 3183 3187 3190 3189 3192 3195 3200 3202 3203 3204 3205 3207 3209 3209 3210 3210 3211 3213 3213 3214 3216 3215 3214 3215 3215 3216 3220 3222 3224 3225 3226 3227 3227 3228 3228 3228 3227 3227 3227
3172 3176 3174 3176 3176 3176 3176 3178 3179 3181 3186 3187 3188 3193 3196 3198 3202 3205 3206 3207 3208 3209 3210 3211 3212 3213 3213 3214 3215 3216 3217 3218 3217 3217 3217 3219 3221 3224 3226 3227 3229 3230 3230 3231 3231 3230 3229 3229 3230
3172 3175 3177 3177 3175 3175 3177 3178 3180 3181 3181 3185 3186 3191 3195 3199 3203 3208 3208 3210 3210 3210 3211 3212 3214 3214 3214 3216 3217 3217 3218 3220 3220 3220 3220 3222 3223 3225 3229 3230 3232 3232 3232 3233 3234 3233 3233 3233 3232
3171 3173 3175 3175 3173 3174 3177 3178 3180 3182 3185 3190 3191 3194 3197 3201 3205 3207 3210 3211 3213 3213 3213 3215 3215 3216 3217 3217 3219 3219 3220 3222 3223 3224 3224 3225 3226 3228 3230 3232 3234 3234 3234 3235 3235 3236 3236 3237 3237
3171 3173 3175 3175 3172 3175 3178 3180 3181 3185 3188 3193 3194 3198 3202 3205 3206 3208 3211 3211 3212 3214 3216 3217 3216 3218 3218 3219 3221 3221 3223 3223 3224 3226 3226 3227 3229 3231 3233 3233 3235 3236 3237 3237 3238 3238 3238 3239 3240
3171 3171 3174 3174 3176 3177 3179 3181 3184 3186 3188 3192 3196 3197 3202 3206 3206 3209 3211 3212 3213 3216 3217 3217 3216 3216 3219 3221 3222 3224 3225 3225 3225 3227 3228 3229 3231 3232 3235 3236 3236 3237 3238 3239 3240 3240 3240 3241 3240
3169 3171 3174 3175 3177 3179 3179 3181 3182 3184 3187 3192 3197 3199 3203 3205 3208 3211 3213 3215 3217 3218 3220 3220 3219 3219 3222 3223 3226 3226 3227 3227 3226 3228 3230 3231 3232 3234 3236 3237 3238 3239 3240 3242 3243 3244 3244 3244 3244
3170 3172 3173 3176 3177 3180 3180 3180 3182 3182 3185 3188 3198 3201 3204 3205 3208 3212 3216 3218 3220 3220 3221 3222 3222 3224 3225 3225 3227 3228 3227 3228 3229 3230 3232 3233 3234 3235 3237 3239 3239 3242 3243 3244 3245 3245 3245 3246 3247
3166 3169 3171 3174 3175 3178 3179 3178 3180 3182 3184 3188 3195 3201 3204 3207 3208 3213 3216 3219 3220 3221 3222 3222 3224 3226 3227 3228 3228 3229 3228 3229 3231 3232 3232 3233 3235 3237 3239 3240 3241 3242 3244 3246 3246 3247 3247 3248 3248
3163 3168 3169 3169 3169 3175 3177 3177 3177 3181 3185 3187 3192 3200 3204 3206 3208 3212 3216 3219 3221 3221 3221 3223 3226 3228 3229 3229 3228 3228 3230 3232 3232 3233 3234 3235 3236 3238 3239 3242 3243 3244 3246 3248 3248 3249 3250 3250 3251
3161 3167 3166 3168 3170 3175 3175 3176 3175 3180 3185 3186 3193 3199 3203 3207 3210 3212 3215 3218 3220 3221 3223 3224 3225 3228 3229 3230 3230 3231 3232 3234 3235 3235 3236 3236 3238 3239 3241 3243 3244 3244 3247 3249 3250 3251 3253 3252 3252
3162 3166 3169 3169 3170 3173 3175 3175 3176 3179 3182 3185 3188 3198 3202 3206 3209 3212 3215 3217 3219 3221 3222 3224 3224 3226 3229 3230 3232 3234 3234 3236 3235 3236 3237 3238 3239 3240 3242 3244 3245 3246 3247 3250 3251 3252 3255 3254 3255
3157 3161 3165 3165 3169 3172 3174 3173 3177 3179 3181 3183 3189 3193 3198 3203 3206 3210 3214 3217 3219 3220 3222 3224 3225 3226 3228 3230 3233 3234 3235 3237 3238 3237 3238 3239 3240 3241 3242 3244 3246 3247 3248 3249 3250 3253 3255 3257 3257
3154 3158 3160 3160 3162 3169 3171 3170 3171 3176 3179 3181 3182 3190 3197 3201 3206 3209 3212 3215 3217 3218 3221 3223 3226 3227 3229 3230 3232 3234 3235 3237 3239 3238 3238 3239 3239 3240 3242 3243 3246 3247 3249 3250 3250 3254 3256 3258 3259
3152 3154 3154 3157 3161 3161 3165 3166 3163 3170 3173 3177 3179 3186 3194 3198 3203 3205 3210 3214 3216 3217 3219 3222 3225 3227 3229 3230 3232 3234 3236 3238 3239 3239 3239 3240 3240 3241 3242 3244 3246 3248 3249 3250 3252 3254 3257 3258 3260
3153 3152 3155 3156 3160 3163 3158 3162 3162 3160 3165 3175 3180 3181 3190 3194 3197 3204 3209 3213 3215 3216 3217 3220 3223 3226 3228 3230 3232 3234 3235 3238 3239 3239 3240 3240 3240 3242 3243 3245 3246 3247 3249 3250 3252 3255 3256 3259 3261
3150 3151 3154 3158 3157 3158 3156 3161 3158 3162 3165 3173 3177 3178 3183 3189 3194 3196 3203 3209 3212 3215 3217 3219 3220 3223 3227 3229 3231 3234 3235 3237 3239 3240 3241 3241 3241 3243 3244 3244 3245 3247 3249 3250 3252 3255 3256 3257 3260
3144 3146 3148 3154 3158 3152 3152 3154 3156 3161 3168 3173 3174 3176 3180 3185 3183 3190 3196 3204 3210 3213 3216 3218 3219 3221 3225 3228 3230 3233 3233 3235 3238 3239 3241 3241 3242 3244 3245 3245 3246 3247 3248 3249 3251 3253 3256 3257 3259
3140 3142 3144 3146 3147 3150 3152 3155 3155 3159 3165 3170 3168 3170 3175 3178 3176 3184 3190 3196 3204 3209 3214 3217 3218 3218 3222 3226 3229 3232 3233 3234 3237 3238 3240 3242 3243 3245 3246 3247 3247 3248 3248 3248 3250 3252 3254 3256 3258
3137 3141 3145 3143 3148 3148 3148 3153 3154 3158 3163 3165 3168 3172 3174 3169 3173 3176 3170 3193 3199 3204 3209 3212 3215 3216 3218 3221 3224 3228 3232 3234 3235 3236 3238 3242 3243 3243 3245 3246 3246 3248 3249 3248 3248 3250 3252 3254 3256
3136 3138 3142 3144 3143 3144 3149 3151 3150 3154 3158 3163 3164 3168 3172 3175 3168 3174 3183 3189 3194 3200 3204 3208 3211 3214 3215 3218 3221 3225 3229 3230 3232 3234 3236 3239 3241 3241 3243 3244 3245 3246 3247 3248 3248 3249 3251 3252 3254
3132 3135 3138 3142 3141 3142 3143 3153 3150 3153 3157 3162 3165 3168 3170 3174 3176 3177 3178 3187 3193 3193 3196 3201 3207 3211 3215 3217 3219 3222 3225 3228 3229 3231 3235 3238 3240 3241 3241 3243 3244 3245 3246 3246 3247 3248 3249 3251 3252